| time (UTC) | temp C | wind direction | speed KPH | gust KPH | rain 1hr cm | rain 24hr cm | rain mn cm | humidity % | barometer mb |
| 20260905204504 | 33 | 153 | 14.5 | 25.7 | 0.00 | 0.00 | 0.00 | 47 | 1010.3 |
| 20260905203002 | 32 | 155 | 14.5 | 24.1 | 0.00 | 0.00 | 0.00 | 55 | 1010.6 |
| 20260905201601 | 32 | 156 | 19.3 | 29.0 | 0.00 | 0.00 | 0.00 | 58 | 1010.5 |
| 20260905200104 | 35 | 158 | 32.2 | 41.8 | 0.00 | 0.00 | 0.00 | 48 | 1010.5 |
| 20260905194559 | 36 | 155 | 12.9 | 24.1 | 0.00 | 0.00 | 0.00 | 45 | 1010.4 |
| 20260905193058 | 36 | 153 | 14.5 | 22.5 | 0.00 | 0.00 | 0.00 | 44 | 1010.5 |
| 20260905191605 | 37 | 152 | 8.0 | 19.3 | 0.00 | 0.00 | 0.00 | 42 | 1010.5 |
| 20260905190054 | 37 | 147 | 8.0 | 19.3 | 0.00 | 0.00 | 0.00 | 43 | 1010.5 |
| 20260905184557 | 37 | 152 | 9.7 | 24.1 | 0.00 | 0.00 | 0.00 | 42 | 1010.9 |
| 20260905183048 | 36 | 155 | 6.4 | 17.7 | 0.00 | 0.00 | 0.00 | 43 | 1011.0 |
| 20260905181547 | 36 | 151 | 11.3 | 22.5 | 0.00 | 0.00 | 0.00 | 44 | 1011.2 |
| 20260905180058 | 36 | 155 | 11.3 | 19.3 | 0.00 | 0.00 | 0.00 | 44 | 1011.2 |
| 20260905174542 | 36 | 153 | 9.7 | 16.1 | 0.00 | 0.00 | 0.00 | 42 | 1011.4 |
| 20260905173100 | 37 | 150 | 8.0 | 17.7 | 0.00 | 0.00 | 0.00 | 42 | 1011.4 |
| 20260905171636 | 36 | 151 | 4.8 | 17.7 | 0.00 | 0.00 | 0.00 | 42 | 1011.7 |
| 20260905170035 | 36 | 147 | 6.4 | 14.5 | 0.00 | 0.00 | 0.00 | 44 | 1011.9 |
| 20260905164534 | 36 | 150 | 9.7 | 19.3 | 0.00 | 0.00 | 0.00 | 44 | 1012.1 |
| 20260905163030 | 36 | 155 | 3.2 | 14.5 | 0.00 | 0.00 | 0.00 | 46 | 1012.2 |
| 20260905161627 | 36 | 153 | 4.8 | 16.1 | 0.00 | 0.00 | 0.00 | 46 | 1012.2 |
| 20260905160026 | 35 | 149 | 4.8 | 12.9 | 0.00 | 0.00 | 0.00 | 47 | 1012.4 |
| 20260905154523 | 35 | 154 | 1.6 | 9.7 | 0.00 | 0.00 | 0.00 | 48 | 1012.5 |
| 20260905153021 | 35 | 154 | 1.6 | 11.3 | 0.00 | 0.00 | 0.00 | 49 | 1012.7 |
| 20260905151520 | 34 | 148 | 4.8 | 11.3 | 0.00 | 0.00 | 0.00 | 52 | 1012.5 |
| 20260905150012 | 33 | 151 | 3.2 | 12.9 | 0.00 | 0.00 | 0.00 | 53 | 1012.5 |
| 20260905144521 | 33 | 153 | 4.8 | 11.3 | 0.00 | 0.00 | 0.00 | 55 | 1012.5 |
| 20260905143007 | 32 | 156 | 4.8 | 8.0 | 0.00 | 0.00 | 0.00 | 59 | 1012.6 |
| 20260905141505 | 32 | 155 | 1.6 | 6.4 | 0.00 | 0.00 | 0.00 | 60 | 1012.7 |
| 20260905140100 | 31 | 156 | 0.0 | 8.0 | 0.00 | 0.00 | 0.00 | 63 | 1012.9 |
| 20260905134557 | 30 | 152 | 0.0 | 1.6 | 0.00 | 0.00 | 0.00 | 66 | 1012.9 |
| 20260905133058 | 30 | 155 | 0.0 | 1.6 | 0.00 | 0.00 | 0.00 | 69 | 1012.9 |
| 20260905131550 | 29 | 153 | 0.0 | 1.6 | 0.00 | 0.00 | 0.00 | 73 | 1013.0 |
| 20260905130045 | 27 | 159 | 0.0 | 0.0 | 0.00 | 0.00 | 0.00 | 79 | 1013.0 |
| 20260905124542 | 26 | 158 | 0.0 | 0.0 | 0.00 | 0.00 | 0.00 | 84 | 1013.0 |
| 20260905123048 | 26 | 159 | 0.0 | 1.6 | 0.00 | 0.00 | 0.00 | 83 | 1012.9 |
| 20260905121544 | 25 | 158 | 1.6 | 3.2 | 0.00 | 0.00 | 0.00 | 84 | 1012.9 |
| 20260905120034 | -17 | 0.0 | 0.0 | 0.00 | 0.00 | 0.00 | 1012.7 | ||
| 20260905114531 | -17 | 0.0 | 0.0 | 0.00 | 0.00 | 0.00 | 1012.6 | ||
| 20260905113026 | -17 | 0.0 | 0.0 | 0.00 | 0.00 | 0.00 | 1012.4 | ||
| 20260905111521 | -17 | 0.0 | 0.0 | 0.00 | 0.00 | 0.00 | 1012.5 | ||
| 20260905110018 | -17 | 0.0 | 0.0 | 0.00 | 0.00 | 0.00 | 1012.3 | ||
| 20260905104513 | -17 | 0.0 | 0.0 | 0.00 | 0.00 | 0.00 | 1012.3 | ||
| 20260905103011 | -17 | 0.0 | 0.0 | 0.00 | 0.00 | 0.00 | 1012.3 | ||
| 20260905101504 | -17 | 0.0 | 0.0 | 0.00 | 0.00 | 0.00 | 1012.4 | ||
| 20260905100122 | -17 | 0.0 | 0.0 | 0.00 | 0.00 | 0.00 | 1012.3 | ||
| 20260905094556 | -17 | 0.0 | 0.0 | 0.00 | 0.00 | 0.00 | 1012.2 | ||
| 20260905093052 | -17 | 0.0 | 0.0 | 0.00 | 0.00 | 0.00 | 1012.1 | ||
| 20260905091557 | 26 | 165 | 4.8 | 8.0 | 0.00 | 0.00 | 0.00 | 75 | 1011.8 |
| 20260905090047 | 26 | 153 | 1.6 | 3.2 | 0.00 | 0.00 | 0.00 | 77 | 1011.8 |
| 20260905084551 | 26 | 153 | 3.2 | 6.4 | 0.00 | 0.00 | 0.00 | 77 | 1011.8 |
| 20260905083105 | 26 | 150 | 0.0 | 3.2 | 0.00 | 0.00 | 0.00 | 79 | 1011.8 |
| 20260905081544 | 25 | 150 | 0.0 | 1.6 | 0.00 | 0.00 | 0.00 | 83 | 1012.0 |
| 20260905080042 | 25 | 156 | 0.0 | 1.6 | 0.00 | 0.00 | 0.00 | 84 | 1012.1 |
| 20260905074543 | 25 | 156 | 0.0 | 1.6 | 0.00 | 0.00 | 0.00 | 84 | 1012.1 |
| 20260905073041 | 25 | 156 | 1.6 | 4.8 | 0.00 | 0.00 | 0.00 | 81 | 1012.1 |
| 20260905071542 | 25 | 157 | 0.0 | 0.0 | 0.00 | 0.00 | 0.00 | 82 | 1012.1 |
| 20260905070040 | 25 | 157 | 0.0 | 1.6 | 0.00 | 0.00 | 0.00 | 82 | 1012.1 |
| 20260905064538 | 25 | 157 | 0.0 | 0.0 | 0.00 | 0.00 | 0.00 | 82 | 1012.1 |
| 20260905063038 | 25 | 157 | 0.0 | 3.2 | 0.00 | 0.00 | 0.00 | 82 | 1012.2 |
| 20260905061541 | 26 | 156 | 0.0 | 0.0 | 0.00 | 0.00 | 0.00 | 80 | 1012.2 |
| 20260905060042 | 26 | 156 | 1.6 | 3.2 | 0.00 | 0.00 | 0.00 | 78 | 1012.4 |
| 20260905054601 | 26 | 155 | 1.6 | 3.2 | 0.00 | 0.00 | 0.00 | 78 | 1012.5 |
| 20260905053032 | 26 | 155 | 1.6 | 6.4 | 0.00 | 0.00 | 0.00 | 79 | 1012.5 |
| 20260905051530 | 25 | 149 | 3.2 | 8.0 | 0.00 | 0.00 | 0.00 | 82 | 1012.5 |
| 20260905050026 | 25 | 153 | 0.0 | 0.0 | 0.00 | 0.00 | 0.00 | 85 | 1012.4 |
| 20260905044524 | 26 | 155 | 0.0 | 0.0 | 0.00 | 0.00 | 0.00 | 78 | 1012.4 |
| 20260905043025 | 25 | 154 | 1.6 | 3.2 | 0.00 | 0.00 | 0.00 | 80 | 1012.4 |
| 20260905041526 | 25 | 153 | 0.0 | 0.0 | 0.00 | 0.00 | 0.00 | 84 | 1012.5 |
| 20260905040023 | 26 | 153 | 0.0 | 0.0 | 0.00 | 0.00 | 0.00 | 82 | 1012.5 |
| 20260905034523 | 26 | 153 | 0.0 | 0.0 | 0.00 | 0.00 | 0.00 | 81 | 1012.5 |
| 20260905033022 | 26 | 153 | 0.0 | 0.0 | 0.00 | 0.00 | 0.00 | 79 | 1012.5 |
| 20260905031522 | 27 | 153 | 0.0 | 0.0 | 0.00 | 0.00 | 0.00 | 77 | 1012.5 |
| 20260905030031 | 26 | 153 | 0.0 | 1.6 | 0.00 | 0.00 | 0.00 | 77 | 1012.5 |
| 20260905024521 | 27 | 153 | 1.6 | 3.2 | 0.00 | 0.00 | 0.00 | 80 | 1012.4 |
| 20260905023020 | 27 | 152 | 3.2 | 3.2 | 0.00 | 0.00 | 0.00 | 76 | 1012.3 |
| 20260905021521 | 28 | 154 | 0.0 | 0.0 | 0.00 | 0.00 | 0.00 | 74 | 1012.2 |
| 20260905020019 | 28 | 155 | 0.0 | 0.0 | 0.00 | 0.00 | 0.00 | 70 | 1012.2 |
| 20260905014518 | 28 | 154 | 0.0 | 0.0 | 0.00 | 0.00 | 0.00 | 66 | 1012.1 |
| 20260905013018 | 29 | 154 | 0.0 | 0.0 | 0.00 | 0.00 | 0.00 | 66 | 1011.9 |
| 20260905011520 | 30 | 154 | 0.0 | 0.0 | 0.00 | 0.00 | 0.00 | 64 | 1011.8 |
| 20260905010019 | 31 | 154 | 0.0 | 0.0 | 0.00 | 0.00 | 0.00 | 60 | 1011.6 |
| 20260905004517 | 31 | 154 | 0.0 | 0.0 | 0.00 | 0.00 | 0.00 | 56 | 1011.5 |
| 20260905003021 | 32 | 153 | 0.0 | 0.0 | 0.00 | 0.00 | 0.00 | 56 | 1011.5 |
| 20260905001515 | 33 | 153 | 0.0 | 0.0 | 0.00 | 0.00 | 0.00 | 51 | 1011.3 |
| 20260905000014 | 35 | 155 | 0.0 | 0.0 | 0.00 | 0.00 | 0.00 | 45 | 1011.3 |
| 20260904234514 | 36 | 153 | 0.0 | 4.8 | 0.00 | 0.00 | 0.00 | 44 | 1011.3 |
| 20260904233013 | 36 | 155 | 1.6 | 9.7 | 0.00 | 0.00 | 0.00 | 43 | 1011.2 |
| 20260904231515 | 36 | 155 | 8.0 | 11.3 | 0.00 | 0.00 | 0.00 | 42 | 1011.2 |
| 20260904230017 | 36 | 152 | 4.8 | 9.7 | 0.00 | 0.00 | 0.00 | 41 | 1011.2 |
| 20260904224512 | 37 | 154 | 9.7 | 12.9 | 0.00 | 0.00 | 0.00 | 40 | 1011.2 |
| 20260904223010 | 36 | 153 | 9.7 | 16.1 | 0.00 | 0.00 | 0.00 | 41 | 1011.1 |
| 20260904221508 | 36 | 148 | 6.4 | 12.9 | 0.00 | 0.00 | 0.00 | 41 | 1011.1 |
| 20260904220007 | 37 | 150 | 11.3 | 17.7 | 0.00 | 0.00 | 0.00 | 40 | 1011.3 |
| 20260904214505 | 37 | 155 | 3.2 | 9.7 | 0.00 | 0.00 | 0.00 | 40 | 1011.5 |
| 20260904213004 | 37 | 153 | 8.0 | 16.1 | 0.00 | 0.00 | 0.00 | 40 | 1011.5 |
| 20260904211506 | 37 | 153 | 9.7 | 17.7 | 0.00 | 0.00 | 0.00 | 40 | 1011.7 |